Regional Weather Roundup
Issued by NWS Green Bay, WI

Home | Current Version | Previous Version | Text Only | Print | Product List | Glossary On
Versions: 1 2 3 4 5 6 7 8 9 10 11 12 13 14 15 16 17 18 19 20 21 22 23 24 25 26 27 28 29 30 31 32 33 34 35 36 37 38 39 40 41 42 43 44 45 46 47 48 49 50
000
ASUS43 KGRB 071400
RWRGRB

NORTH-CENTRAL AND NORTHEAST WISCONSIN REGIONAL WEATHER ROUNDUP
NATIONAL WEATHER SERVICE GREEN BAY WI
800 AM CST WED DEC 07 2016

WIZ005-009-010>012-018-019-071500-
NORTH CENTRAL WISCONSIN

CITY           SKY/WX    TMP DP  RH WIND       PRES   REMARKS
IRONWOOD       NOT AVBL
MANITOWISH WTR NOT AVBL
ARBOR VITAE    NOT AVBL
EAGLE RIVER    NOT AVBL
LAND O LAKES   NOT AVBL
RHINELANDER    LGT SNOW  17  12  80 W16G28    29.78R WCI   2
PHILLIPS       NOT AVBL
ANTIGO         NOT AVBL
TOMAHAWK       NOT AVBL
MERRILL        NOT AVBL
$$

WIZ013-073-071500-
NORTHEAST WISCONSIN

CITY           SKY/WX    TMP DP  RH WIND       PRES   REMARKS
IRON MOUNTAIN  NOT AVBL
MARINETTE      NOT AVBL
$$

WIZ017-030-035>037-045-071500-
CENTRAL WISCONSIN

CITY           SKY/WX    TMP DP  RH WIND       PRES   REMARKS
MEDFORD        NOT AVBL
WAUSAU         LGT SNOW  16  11  80 W15G25    29.87R WCI   1
MOSINEE        NOT AVBL
MARSHFIELD     FLURRIES  16  10  77 W15       29.90R WCI   1
WISC RAPIDS    CLOUDY    17  11  77 W16G23    29.95R WCI   2
STEVENS POINT  NOT AVBL
WAUPACA        NOT AVBL
SHAWANO        NOT AVBL
CLINTONVILLE   NOT AVBL
WAUTOMA        CLOUDY    18  12  77 W17       29.96R WCI   3
$$

WIZ038-039-048-051-071500-
FOX VALLEY

CITY           SKY/WX    TMP DP  RH WIND       PRES   REMARKS
NWS GREEN BAY  CLOUDY    24  15  68 W17G26    29.91R
APPLETON       CLOUDY    19  12  73 W20G25    29.91R WCI   4
OSHKOSH        PTCLDY    20  12  71 W13G20    29.95R WCI   7
FOND DU LAC    PTCLDY    21  13  71 SW14G20   29.97R WCI   8
$$

WIZ022-050-052-071500-
EAST CENTRAL WISCONSIN

CITY           SKY/WX    TMP DP  RH WIND       PRES   REMARKS
EPHRAIM        NOT AVBL
WASHINGTON ISL NOT AVBL
STURGEON BAY   CLOUDY    23  16  74 SW21G26   29.86R WCI   8
MANITOWOC      NOT AVBL
SHEBOYGAN      PTCLDY    22  15  75 W18G31    29.93R WCI   7
$$

LMZ563-521-522-541>543-071500-
LAKESHORE

STATION/POSITION TIME  TEMP    WIND        PRES    VSBY  WAVE
                       AIR SEA DIR/SP/G                  HT/PER
                 (UTC) (F)     (DEG/KT/KT) (MB)    (MI)  (FT/S)
SHEBOYGAN LKSHOR 1300   24     250/ 14/ 17 1014.3R
KEWAUNEE LKSHORE 1330   23     320/ 16/ 22 1011.5R
NORTHPORT PIER   1344   26     220/  5/ 19 1010.2R
SISTER BAY LKSHO 1309   27     290/ 24/ 29   N/A
CHAMBERS ISLAND  1340   24     220/ 10/ 21 1009.8R
MENOMINEE LKSHOR 1330   23     220/ 14/ 20 1009.8R
$$



USA.gov is the U.S. government's official web portal to all federal, state and local government web resources and services.